ASXGS LGTT-LGTT

Flight info

Callsign ASXGS
Flight time N/A
Altitude 6000
Route 3755N02341E DCT KEA DCT MKN DCT ERIMA DCT IRBEG DCT DDM31 DCT 3758N02324E
Aircraft DA62/L-SDFGRY/C

Departure

Time 2026-05-07 17:18
Airport Tatoi Airport (LGTT)

Arrival

Time N/A
Airport Tatoi Airport (LGTT)
Time Latitude Longitude Altitude Speed Heading
2026-05-07 17:13 38.10640 23.77980 788 ft 0 kts 121°
2026-05-07 17:16 38.10625 23.78007 780 ft 10 kts 153°
2026-05-07 17:16 38.10501 23.77962 780 ft 27 kts 198°
2026-05-07 17:16 38.10343 23.77891 780 ft 19 kts 202°
2026-05-07 17:17 38.10279 23.77859 780 ft 8 kts 181°
2026-05-07 17:17 38.10243 23.77889 781 ft 6 kts 118°
2026-05-07 17:17 38.10234 23.77931 782 ft 10 kts 66°
2026-05-07 17:17 38.10245 23.77945 782 ft 0 kts 21°
2026-05-07 17:18 38.10382 23.78031 781 ft 55 kts 27°
2026-05-07 17:18 38.10887 23.78360 849 ft 100 kts 27°
2026-05-07 17:18 38.11564 23.78822 1058 ft 117 kts 28°
2026-05-07 17:18 38.12291 23.79357 1404 ft 122 kts 29°
2026-05-07 17:19 38.13033 23.79865 1807 ft 122 kts 29°
2026-05-07 17:19 38.13804 23.80411 2079 ft 135 kts 29°
2026-05-07 17:19 38.14511 23.81288 2103 ft 154 kts 65°
2026-05-07 17:19 38.15032 23.82556 2108 ft 168 kts 63°
2026-05-07 17:20 38.15471 23.83948 2124 ft 172 kts 89°
2026-05-07 17:20 38.15141 23.85360 2127 ft 169 kts 124°
2026-05-07 17:20 38.14572 23.86505 2135 ft 174 kts 126°
2026-05-07 17:20 38.13904 23.87804 2130 ft 176 kts 127°
2026-05-07 17:21 38.13226 23.89105 2129 ft 177 kts 126°
2026-05-07 17:21 38.12545 23.90416 2130 ft 179 kts 126°
2026-05-07 17:21 38.11868 23.91741 2133 ft 178 kts 128°
2026-05-07 17:21 38.10903 23.92637 2121 ft 172 kts 159°
2026-05-07 17:22 38.09852 23.93190 2442 ft 155 kts 161°
2026-05-07 17:22 38.08891 23.93719 2756 ft 150 kts 161°
2026-05-07 17:22 38.07940 23.94252 2981 ft 145 kts 161°
2026-05-07 17:22 38.07015 23.94754 3095 ft 152 kts 160°
2026-05-07 17:23 38.06032 23.95416 2949 ft 167 kts 143°
2026-05-07 17:23 38.05423 23.96740 2848 ft 181 kts 116°
2026-05-07 17:23 38.04950 23.98250 2733 ft 186 kts 114°
2026-05-07 17:23 38.04474 23.99784 2679 ft 185 kts 115°
2026-05-07 17:24 38.03945 24.01248 2683 ft 181 kts 124°
2026-05-07 17:24 38.03659 24.02790 2681 ft 187 kts 84°
2026-05-07 17:24 38.04272 24.04234 2682 ft 191 kts 42°
2026-05-07 17:24 38.05473 24.04865 2679 ft 189 kts 360°
2026-05-07 17:25 38.06679 24.04373 2682 ft 182 kts 317°
2026-05-07 17:25 38.07455 24.03141 2688 ft 179 kts 303°
2026-05-07 17:25 38.08220 24.01891 2691 ft 179 kts 304°
2026-05-07 17:25 38.08989 24.00649 2690 ft 179 kts 304°
2026-05-07 17:26 38.09755 23.99399 2693 ft 179 kts 304°
2026-05-07 17:26 38.10520 23.98154 2691 ft 178 kts 304°
2026-05-07 17:26 38.11280 23.96921 2693 ft 178 kts 304°
2026-05-07 17:26 38.12045 23.95680 2692 ft 179 kts 304°
2026-05-07 17:27 38.12813 23.94431 2691 ft 180 kts 303°
2026-05-07 17:27 38.13595 23.93193 2692 ft 180 kts 304°
2026-05-07 17:27 38.14367 23.91962 2692 ft 181 kts 304°
2026-05-07 17:27 38.15123 23.90658 2376 ft 191 kts 298°
2026-05-07 17:28 38.15554 23.89098 1795 ft 187 kts 272°
2026-05-07 17:28 38.15576 23.87531 1711 ft 170 kts 267°
2026-05-07 17:28 38.15548 23.86109 1885 ft 149 kts 264°
2026-05-07 17:28 38.15424 23.84779 1799 ft 154 kts 251°
2026-05-07 17:29 38.14960 23.83538 1569 ft 157 kts 237°
2026-05-07 17:29 38.14460 23.82517 1491 ft 133 kts 235°
2026-05-07 17:29 38.13876 23.81491 1455 ft 151 kts 231°
2026-05-07 17:29 38.13222 23.80519 1222 ft 138 kts 225°
2026-05-07 17:30 38.12578 23.79707 1094 ft 123 kts 222°
2026-05-07 17:30 38.12382 23.79486 966 ft 127 kts 220°